FW0130 Weather Reports


time (UTC)temp
F
wind
direction
speed
knots
gust
knots
rain 1hr
in
rain 24hr
in
rain mn
in
humidity
%
barometer
mb
20260505011600 76 158 0.0 1.7 0.00 0.02 0.02 51 999.2
20260505004555 77 233 0.0 1.7 0.00 0.02 0.02 50 999.0
20260505003105 78 177 0.0 2.6 0.00 0.02 0.02 49 998.7
20260505001548 79 168 0.0 2.6 0.00 0.02 0.02 47 998.6
20260505000111 80 205 0.0 4.3 0.00 0.02 0.02 47 998.7
20260504234559 80 169 1.7 4.3 0.00 0.02 0.02 46 998.8
20260504233052 80 188 1.7 6.1 0.00 0.02 0.02 46 998.8
20260504231534 81 219 0.0 6.1 0.00 0.02 0.02 45 999.0
20260504230028 81 146 1.7 5.2 0.00 0.02 0.02 45 999.1
20260504224516 82 174 0.9 5.2 0.00 0.02 0.02 45 999.0
20260504223003 82 110 1.7 5.2 0.00 0.02 0.02 43 999.3
20260504221556 83 248 0.9 7.0 0.00 0.02 0.02 43 999.3
20260504220056 83 258 0.9 7.0 0.00 0.02 0.02 44 999.3
20260504214537 83 234 2.6 7.8 0.00 0.02 0.02 42 999.3
20260504213023 83 149 1.7 7.8 0.00 0.02 0.02 44 999.3
20260504211522 83 162 2.6 6.1 0.00 0.02 0.02 44 999.2
20260504210024 82 172 2.6 7.8 0.00 0.02 0.02 46 999.3
20260504204522 82 153 0.0 7.0 0.00 0.02 0.02 48 999.5
20260504203027 80 230 1.7 6.1 0.00 0.02 0.02 51 999.7
20260504201523 78 229 0.9 3.5 0.00 0.02 0.02 57 999.9
20260504200016 74 158 0.9 3.5 0.00 0.02 0.02 64 999.9
20260504194509 69 148 0.9 2.6 0.00 0.02 0.02 78 1000.1
20260504193007 66 143 0.0 2.6 0.00 0.02 0.02 85 1000.0
20260504191520 65 142 0.0 0.0 0.01 0.02 0.02 91 1001.0
20260504190008 64 139 0.0 1.7 0.02 0.02 0.02 90 1000.8
20260504184512 64 146 0.0 0.0 0.02 0.02 0.02 89 1001.5
20260504183110 65 146 0.0 0.0 0.02 0.02 0.02 86 1001.6
20260504181549 66 146 0.0 0.9 0.01 0.01 0.01 81 1001.6
20260504180024 69 146 0.0 0.9 0.00 0.00 0.00 73 1001.6
20260504174524 73 146 0.0 0.9 0.00 0.00 0.00 60 1001.7
20260504173027 73 148 0.0 0.9 0.00 0.00 0.00 55 1001.8
20260504171510 72 132 0.0 0.0 0.00 0.00 0.00 59 1002.1
20260504081527 56 359 0.0 0.0 0.00 0.00 0.00 81 1004.3
20260504050005 63 89 0.0 0.9 0.00 0.00 0.00 64 1004.8
20260504044517 63 89 0.0 0.0 0.00 0.00 0.00 65 1005.1
20260504043012 63 89 0.0 0.9 0.00 0.00 0.00 66 1005.4
20260504041508 64 4 0.0 0.0 0.00 0.00 0.00 65 1005.6
20260504040106 64 127 0.0 0.0 0.00 0.00 0.00 63 1005.7
20260504034508 65 127 0.0 1.7 0.00 0.00 0.00 63 1005.8
20260504033002 64 259 0.0 0.0 0.00 0.00 0.00 65 1006.1
20260504031506 64 259 0.0 0.0 0.00 0.00 0.00 63 1006.4
20260504030105 63 259 0.0 0.0 0.00 0.00 0.00 66 1006.1
20260504024511 64 259 0.0 0.0 0.00 0.00 0.00 65 1005.9
20260504023007 65 259 0.0 0.0 0.00 0.00 0.00 64 1005.8
20260504021504 66 259 0.0 0.0 0.00 0.00 0.00 59 1005.7
20260504020008 68 259 0.0 0.0 0.00 0.00 0.00 55 1005.6
20260504014517 69 259 0.0 0.0 0.00 0.00 0.00 53 1005.5
20260504013107 70 259 0.0 0.0 0.00 0.00 0.00 51 1005.4